sat.trackr.live / text

‹ back to catalog

STARLINK-32686

NORAD 62192 · 2024-229A

PAYLOAD ACTIVE UNKNOWN

§ Identity

Operator
Country
US
Launch date
2024-12-04
Launch site
AFETR
Launch vehicle
Mass (kg)
RCS (m²)

Purposes: comms

External: N2YO · Heavens-Above · Gunter

§ Orbital elements

Epoch: 2026-05-25T04:39:06.689088Z

Period
94.27 min
Inclination
43.0008°
Eccentricity
0.0001469
Mean motion
15.27585618 rev/d
Perigee alt
482.0 km
Apogee alt
484.0 km
Semi-major
6,861.2 km
B*
4.6577e-4
RAAN
195.0413°
Arg perigee
267.7247°
Mean anomaly
92.3437°
Rev number
8,230

§ Raw data

STARLINK-326861 62192U 24229A   26145.19382742  .00012579  00000+0  46577-3 0  99982 62192  43.0008 195.0413 0001469 267.7247  92.3437 15.27585618 82304

JSON: /api/v1/satellites/62192 · /tle

For live sub-satellite position, see the globe view (requires WebGL).

§ Visibility from observer

Set your observer location to see the next 7 days of passes ≥ 10°. The values pass through the URL so the page stays shareable.

No JS? Fill the form by hand. The geolocation button needs JavaScript.